Regional Weather Roundup
Issued by NWS

Home | Current Version | Previous Version | Text Only | Print | Product List | Glossary Off
Versions: 1 2 3 4 5 6 7 8 9 10 11 12 13 14 15 16 17 18 19 20 21 22 23 24 25 26 27 28 29 30 31 32 33 34 35 36 37 38 39 40 41 42 43 44 45 46 47 48 49 50

000
ASUS44 KMEG 291100
RWRTN
TENNESSEE HOURLY STATE WEATHER ROUNDUP
NATIONAL WEATHER SERVICE MEMPHIS TN
600 AM CDT THU SEP 29 2016

TNZ002-004-019-021-049-052-054-088>092-291200-
WEST TENNESSEE

CITY           SKY/WX    TMP DP  RH WIND       PRES   REMARKS
MEMPHIS INTL   CLEAR     55  48  77 N7        30.13R
NWS MEMPHIS      N/A     52 N/A N/A MISG        N/A
JACKSON          N/A    N/A N/A N/A MISG      30.10S
DYERSBURG      CLEAR    N/A N/A N/A MISG        N/A
PARIS          CLEAR     45  43  93 CALM      30.09R
LEXINGTON      CLEAR     45  45 100 CALM      30.08R
$$

TNZ008-025-027-028-033-062-065-066-291200-
NORTH MIDDLE TENNESSEE

CITY           SKY/WX    TMP DP  RH WIND       PRES   REMARKS
NASHVILLE      CLEAR     50  46  86 W5        30.04F
CLARKSVILLE    CLEAR     48  45  89 W6        30.06R
SMYRNA         CLEAR     48  46  93 SW3       30.05F
COOKEVILLE     MOCLDY    52  52 100 CALM      30.02S
CROSSVILLE     CLOUDY    51  49  92 NW5       30.03R
$$

TNZ061-075-076-078-094-096-097-291200-
SOUTH MIDDLE TENNESSEE

CITY           SKY/WX    TMP DP  RH WIND       PRES   REMARKS
SHELBYVILLE    CLEAR     45  45 100 CALM      30.06S
$$

TNZ017-018-042-046-047-291200-
NORTHEAST TENNESSEE

CITY           SKY/WX    TMP DP  RH WIND       PRES   REMARKS
TRI CITIES     CLOUDY    55  53  93 CALM      29.97R
$$

TNZ012-013-036-069-073-074-291200-
CENTRAL EAST TENNESSEE

CITY           SKY/WX    TMP DP  RH WIND       PRES   REMARKS
KNOXVILLE      PTCLDY    59  53  80 N5        29.96R
OAK RIDGE      CLOUDY    60  54  80 CALM      29.98S
GATLINBURG     CLEAR     52  50  93 CALM      29.96R
$$

TNZ083-085-099-291200-
SOUTHEAST TENNESSEE

CITY           SKY/WX    TMP DP  RH WIND       PRES   REMARKS
CHATTANOOGA    PTCLDY    58  51  78 NW5       29.99R
$$

SKY/WX REPORTED AS FAIR MEANS FEW OR NO CLOUDS BELOW
12 THOUSAND FEET.





USA.gov is the U.S. government's official web portal to all federal, state and local government web resources and services.